Change the Weather History Date:

Friday, February 13, 2015

  Actual Average Record
Temperature  
Mean Temperature 8 °F -  
Max Temperature 15 °F 35 °F 58 °F (1984)
Min Temperature 0 °F 11 °F -19 °F (1967)
Degree Days  
Heating Degree Days 58    
Moisture  
Dew Point -7 °F    
Average Humidity 53    
Maximum Humidity 72    
Minimum Humidity 29    
Precipitation  
Precipitation 0.00 in - - ()
Sea Level Pressure  
Sea Level Pressure 30.54 in    
Wind  
Wind Speed 15 mph (NW)    
Max Wind Speed 28 mph    
Max Gust Speed 38 mph    
Visibility 8 miles    
Events Snow    
Averages and records for this station are not official NWS values.
T = Trace of Precipitation, MM = Missing Value Source: NWS Daily Summary

Daily Weather History Graph

Daily Weather History Graph

Search for Another Location

Airport or City:

Trip Planner

Search our weather history database for the weather conditions in past years. The results will help you decide how hot, cold, wet, or windy it might be!

Date:

Astronomy

Feb. 13, 2015 Rise Set
Actual Time 6:46 AM EST 5:14 PM EST
Civil Twilight 6:17 AM EST 5:43 PM EST
Nautical Twilight 5:44 AM EST 6:17 PM EST
Astronomical Twilight 5:11 AM EST 6:50 PM EST
Moon 1:48 AM EST (2/13) 11:51 AM EST (2/13)
Length of Visible Light 11h 26m
Length of Day
10h 28m
Waning Crescent, 34% of the Moon is Illuminated
Feb 13
Waning Crescent
Feb 18
New
Feb 25
First Quarter
Mar 5
Full
Mar 13
Last Quarter

Hourly Weather History & Observations

Time (EST) Temp. Windchill Dew Point Humidity Pressure Visibility Wind Dir Wind Speed Gust Speed Precip Events Conditions
12:51 AM 14.0 °F 0.5 °F 5.0 °F 67% 30.53 in 10.0 mi NW 11.5 mph - N/A   Partly Cloudy
1:51 AM 14.0 °F -2.5 °F 3.0 °F 62% 30.55 in 10.0 mi NW 17.3 mph 20.7 mph N/A   Clear
2:51 AM 12.0 °F -2.0 °F 1.0 °F 61% 30.58 in 10.0 mi NW 11.5 mph - N/A   Clear
3:51 AM 10.0 °F -6.5 °F -0.9 °F 61% 30.60 in 10.0 mi NW 15.0 mph - N/A   Clear
4:51 AM 7.2 °F -9.6 °F -4.0 °F 60% 30.64 in 10.0 mi NW 13.8 mph 23.0 mph N/A   Clear
5:51 AM 6.1 °F -13.3 °F -6.9 °F 55% 30.67 in 10.0 mi NW 18.4 mph 26.5 mph N/A   Clear
6:51 AM 4.1 °F -16.9 °F -8.0 °F 57% 30.71 in 7.0 mi NW 20.7 mph 25.3 mph N/A   Clear
7:05 AM 3.2 °F -17.6 °F -7.6 °F 61% 29.94 in 2.0 mi NW 19.6 mph 31.1 mph N/A   Haze
7:15 AM 3.2 °F -16.5 °F -7.6 °F 61% 29.94 in 5.0 mi NW 17.3 mph 26.5 mph N/A   Haze
7:51 AM 4.1 °F -14.7 °F -8.9 °F 55% 30.75 in 8.0 mi NW 16.1 mph 25.3 mph N/A   Clear
8:06 AM 3.2 °F -19.5 °F -7.6 °F 61% 29.96 in 1.8 mi NW 24.2 mph 34.5 mph N/A   Haze
8:18 AM 5.0 °F -18.3 °F -7.6 °F 56% 29.96 in 1.0 mi NW 27.6 mph 34.5 mph 0.00 in Snow Light Snow
8:25 AM 5.0 °F -15.7 °F -7.6 °F 56% 29.96 in 1.5 mi NW 20.7 mph 34.5 mph 0.00 in   Haze
8:30 AM 5.0 °F -17.1 °F -7.6 °F 56% 29.96 in 3.0 mi NW 24.2 mph 32.2 mph 0.00 in   Haze
8:43 AM 5.0 °F -14.7 °F -7.6 °F 56% 29.97 in 2.5 mi NW 18.4 mph 38.0 mph 0.00 in Snow Light Snow
8:51 AM 5.0 °F -14.7 °F -8.0 °F 55% 30.76 in 10.0 mi NW 18.4 mph - 0.00 in Snow Light Snow
9:25 AM 6.8 °F -13.4 °F -7.6 °F 52% 29.98 in 1.8 mi NW 20.7 mph 32.2 mph 0.00 in   Haze
9:31 AM 6.8 °F -13.4 °F -7.6 °F 52% 29.97 in 3.0 mi NW 20.7 mph 27.6 mph 0.00 in   Haze
9:51 AM 7.2 °F -12.4 °F -6.9 °F 53% 30.76 in 8.0 mi WNW 19.6 mph 26.5 mph 0.00 in   Clear
10:51 AM 10.0 °F -7.6 °F -6.9 °F 46% 30.78 in 10.0 mi NW 17.3 mph 24.2 mph N/A   Clear
11:51 AM 12.0 °F -5.6 °F -8.0 °F 41% 30.76 in 10.0 mi WNW 18.4 mph - N/A   Clear
12:51 PM 14.0 °F -3.9 °F -6.0 °F 41% 30.75 in 10.0 mi NW 20.7 mph 28.8 mph N/A   Clear
1:51 PM 15.1 °F -1.6 °F -6.9 °F 37% 30.75 in 10.0 mi North 18.4 mph 27.6 mph N/A   Clear
2:51 PM 15.1 °F 2.5 °F -9.9 °F 32% 30.77 in 10.0 mi WNW 10.4 mph - N/A   Clear
3:51 PM 14.0 °F -0.8 °F -13.0 °F 29% 30.79 in 10.0 mi NW 13.8 mph 20.7 mph N/A   Clear
4:51 PM 13.1 °F -3.1 °F -10.8 °F 34% 30.80 in 10.0 mi NNW 16.1 mph 23.0 mph N/A   Clear
5:51 PM 10.0 °F 1.8 °F -11.9 °F 37% 30.84 in 10.0 mi NNW 4.6 mph - N/A   Clear
6:51 PM 3.0 °F - -10.8 °F 53% 30.87 in 10.0 mi Calm Calm - N/A   Clear
7:51 PM 1.0 °F - -9.9 °F 60% 30.88 in 10.0 mi Calm Calm - N/A   Clear
8:51 PM 0.1 °F - -8.9 °F 66% 30.89 in 10.0 mi Calm Calm - N/A   Clear
9:51 PM 0.1 °F - -9.9 °F 63% 30.89 in 10.0 mi Calm Calm - N/A   Clear
10:51 PM -0.9 °F - -8.0 °F 72% 30.89 in 10.0 mi Calm Calm - N/A   Clear
11:51 PM 5.0 °F -6.9 °F -10.8 °F 48% 30.87 in 10.0 mi WSW 6.9 mph - N/A   Clear